API VERSION: 1.2 API SOURCE: NASA/JPL Horizons API ******************************************************************************* JPL/HORIZONS 91P/Russell 3 2025-Dec-12 17:51:58 Rec #:90000910 (+COV) Soln.date: 2021-Sep-07_13:51:26 # obs: 337 (1996-2021) IAU76/J2000 helio. ecliptic osc. elements (au, days, deg., period=Julian yrs): EPOCH= 2454575.5 ! 2008-Apr-19.0000000 (TDB) RMSW= n.a. EC= .3302241440164385 QR= 2.60566494659677 TP= 2453548.5901564653 OM= 247.8959797672859 W= 354.8657523066508 IN= 14.09216573033272 A= 3.890353650879768 MA= 131.9024210524671 ADIST= 5.175042355162765 PER= 7.6734704667519 N= .12844596 ANGMOM= .032026032 DAN= 2.60826 DDN= 5.16483 L= 242.9154565 B= -1.2485254 MOID= 1.59332001 TP= 2005-Jun-27.0901564653 Comet physical (GM= km^3/s^2; RAD= km): GM= n.a. RAD= n.a. M1= 7.7 M2= 15.6 k1= 21.75 k2= 5. PHCOF= .030 Comet non-gravitational force model (AMRAT=m^2/kg;A1-A3=au/d^2;DT=days;R0=au): AMRAT= 0. DT= 0. A1= 0. A2= 1.496879160404E-9 A3= 0. Standard model: ALN= .1112620426 NK= 4.6142 NM= 2.15 NN= 5.093 R0= 2.808 COMET comments 1: soln ref.= JPL#K204/3, data arc: 1996-11-18 to 2021-08-30 2: k1=21.75, k2=5., phase coef.=0.03; ******************************************************************************* ******************************************************************************* Ephemeris / API_USER Fri Dec 12 17:51:58 2025 Pasadena, USA / Horizons ******************************************************************************* Target body name: 91P/Russell 3 {source: JPL#K204/3} Center body name: Earth (399) {source: DE441} Center-site name: GEOCENTRIC ******************************************************************************* Start time : A.D. 2028-Oct-26 00:00:00.0000 UT Stop time : A.D. 2028-Oct-27 00:00:00.0000 UT Step-size : 180 minutes ******************************************************************************* Target pole/equ : undefined Target radii : undefined Center geodetic : 0.0, 0.0, -6378.137 {E-lon(deg),Lat(deg),Alt(km)} Center cylindric: 0.0, 0.0, 0.0 {E-lon(deg),Dxy(km),Dz(km)} Center pole/equ : ITRF93 {East-longitude positive} Center radii : 6378.137, 6378.137, 6356.752 km {Equator_a, b, pole_c} Target primary : Sun Vis. interferer : MOON (R_eq= 1737.400) km {source: DE441} Rel. light bend : Sun {source: DE441} Rel. lght bnd GM: 1.3271E+11 km^3/s^2 Small-body perts: Yes {source: SB441-N16} Atmos refraction: NO (AIRLESS) RA format : HMS Time format : CAL Calendar mode : Mixed Julian/Gregorian EOP file : eop.251212.p260310 EOP coverage : DATA-BASED 1962-JAN-20 TO 2025-DEC-12. PREDICTS-> 2026-MAR-09 Units conversion: 1 au= 149597870.700 km, c= 299792.458 km/s, 1 day= 86400.0 s Table cut-offs 1: Elevation (-90.0deg=NO ),Airmass (>38.000=NO), Daylight (NO ) Table cut-offs 2: Solar elongation ( 0.0,180.0=NO ),Local Hour Angle( 0.0=NO ) Table cut-offs 3: RA/DEC angular rate ( 0.0=NO ) ******************************************************************************* Initial IAU76/J2000 heliocentric ecliptic osculating elements (au, days, deg.): EPOCH= 2454575.5 ! 2008-Apr-19.0000000 (TDB) RMSW= n.a. EC= .3302241440164385 QR= 2.60566494659677 TP= 2453548.5901564653 OM= 247.8959797672859 W= 354.8657523066508 IN= 14.09216573033272 Equivalent ICRF heliocentric cartesian coordinates (au, au/d): X= 3.896720893323263E+00 Y= 2.443636999843592E+00 Z= 1.744988227746820E+00 VX=-2.612338292855880E-03 VY= 5.974917981448022E-03 VZ= 1.310139566010589E-03 Comet physical (GM= km^3/s^2; RAD= km): GM= n.a. RAD= n.a. M1= 7.7 M2= 15.6 k1= 21.75 k2= 5. PHCOF= .030 Comet non-gravitational force model (AMRAT=m^2/kg;A1-A3=au/d^2;DT=days;R0=au): AMRAT= 0. DT= 0. A1= 0. A2= 1.496879160404E-9 A3= 0. Standard model: ALN= .1112620426 NK= 4.6142 NM= 2.15 NN= 5.093 R0= 2.808 ******************************************************************************* Date__(UT)__HR:MN r rdot ************************************************** $$SOE 2028-Oct-26 00:00 3.137611937961 -0.0086477 2028-Oct-26 03:00 3.137611371501 -0.0070455 2028-Oct-26 06:00 3.137610920708 -0.0054433 2028-Oct-26 09:00 3.137610585581 -0.0038411 2028-Oct-26 12:00 3.137610366119 -0.0022389 2028-Oct-26 15:00 3.137610262323 -0.0006367 2028-Oct-26 18:00 3.137610274193 0.0009655 2028-Oct-26 21:00 3.137610401728 0.0025677 2028-Oct-27 00:00 3.137610644928 0.0041699 $$EOE ******************************************************************************* Column meaning: TIME Times PRIOR to 1962 are UT1, a mean-solar time closely related to the prior but now-deprecated GMT. Times AFTER 1962 are in UTC, the current civil or "wall-clock" time-scale. UTC is kept within 0.9 seconds of UT1 using integer leap-seconds for 1972 and later years. Conversion from the internal Barycentric Dynamical Time (TDB) of solar system dynamics to the non-uniform civil UT time-scale requested for output has not been determined for UTC times after the next July or January 1st. Therefore, the last known leap-second is used as a constant over future intervals. Time tags refer to the UT time-scale conversion from TDB on Earth regardless of observer location within the solar system, although clock rates may differ due to the local gravity field and no analog to "UT" may be defined for that location. Any 'b' symbol in the 1st-column denotes a B.C. date. First-column blank (" ") denotes an A.D. date. CALENDAR SYSTEM Mixed calendar mode was active such that calendar dates after AD 1582-Oct-15 (if any) are in the modern Gregorian system. Dates prior to 1582-Oct-5 (if any) are in the Julian calendar system, which is automatically extended for dates prior to its adoption on 45-Jan-1 BC. The Julian calendar is useful for matching historical dates. The Gregorian calendar more accurately corresponds to the Earth's orbital motion and seasons. A "Gregorian-only" calendar mode is available if such physical events are the primary interest. NOTE: "n.a." in output means quantity "not available" at the print-time. 'r rdot' = The Sun's apparent range ("r", light-time aberrated) and range-rate ("rdot") relative to the target center, as seen by the observer. A positive "rdot" means the target center was moving away from the Sun, negative means moving toward the Sun. Units: AU and KM/S Computations by ... Solar System Dynamics Group, Horizons On-Line Ephemeris System 4800 Oak Grove Drive, Jet Propulsion Laboratory Pasadena, CA 91109 USA General site: https://ssd.jpl.nasa.gov/ Mailing list: https://ssd.jpl.nasa.gov/email_list.html System news : https://ssd.jpl.nasa.gov/horizons/news.html User Guide : https://ssd.jpl.nasa.gov/horizons/manual.html Connect : browser https://ssd.jpl.nasa.gov/horizons/app.html#/x API https://ssd-api.jpl.nasa.gov/doc/horizons.html command-line telnet ssd.jpl.nasa.gov 6775 e-mail/batch https://ssd.jpl.nasa.gov/ftp/ssd/horizons_batch.txt scripts https://ssd.jpl.nasa.gov/ftp/ssd/SCRIPTS Author : Jon.D.Giorgini@jpl.nasa.gov *******************************************************************************